Miscellaneous Local Product
Issued by NWS Hastings, NE

Home | Current Version | Previous Version | Graphics & Text | Print | Product List | Glossary On
Versions: 1 2 3 4 5 6 7 8 9 10 11 12 13 14 15 16 17 18 19 20 21 22 23 24 25 26 27 28 29 30 31 32 33 34 35 36 37 38 39 40 41 42 43 44 45 46 47 48 49 50
000
AXUS43 KGID 160502
MISGRI

GID CWA HOURLY WEATHER ROUNDUP
NATIONAL WEATHER SERVICE HASTINGS NE
1200 AM CDT WED APR 16 2014

NOTE: "FAIR" INDICATES FEW OR NO CLOUDS BELOW 12,000 FEET WITH NO
SIGNIFICANT WEATHER AND/OR OBSTRUCTIONS TO VISIBILITY.

...SOUTH CENTRAL NEBRASKA...

CITY           SKY/WX    TMP DP  RH WIND       PRES   REMARKS
GRAND ISLAND   PTCLDY    51  26  37 S21       29.71F
HASTINGS       PTCLDY    51  23  33 S14G24    29.73F
ORD            MOCLDY    50  29  44 S16G23    29.64F
YORK           PTCLDY    48  25  40 S20       29.75F
AURORA         PTCLDY    50  26  40 S18G25    29.74F
LEXINGTON      PTCLDY    51  29  42 S20G26    29.66F
HOLDREGE       MOCLDY    49  29  47 S18G24    29.70F
HEBRON         PTCLDY    51  18  26 S20G25    29.80F

...NEBRASKA PANHANDLE...

CITY           SKY/WX    TMP DP  RH WIND       PRES   REMARKS
CHADRON        CLOUDY    56  32  40 NW8       29.53F
ALLIANCE       CLOUDY    60  24  25 SW21G32   29.56F
SCOTTSBLUFF    CLOUDY    58  26  29 W14       29.59F
SIDNEY         CLOUDY    46  32  58 SW12      29.63F

...WESTERN AND NORTH CENTRAL NEBRASKA...

CITY           SKY/WX    TMP DP  RH WIND       PRES   REMARKS
VALENTINE      CLOUDY    53  26  35 SW7       29.52F
AINSWORTH      CLOUDY    50  28  43 S13       29.54F
ONEILL         MOCLDY    50  28  41 SE9       29.61F
BROKEN BOW     MOCLDY    50  28  42 S14       29.63F
IMPERIAL       PTCLDY    49  27  42 S15       29.64F
NORTH PLATTE   PTCLDY    50  25  37 S16G24    29.61F
MCCOOK         PTCLDY    50  29  44 S17       29.67F

...EASTERN NEBRASKA...

CITY           SKY/WX    TMP DP  RH WIND       PRES   REMARKS
NORFOLK        MOCLDY    47  26  44 S18G25    29.70F
SO SIOUX CITY  PTCLDY    44  30  57 SE17G24   29.77F
TEKAMAH        PTCLDY    44  30  57 SE20      29.80F
COLUMBUS       PTCLDY    46  27  46 S17G23    29.74F
ALBION         MOCLDY    49  27  43 S17       29.68F
OMAHA EPPLEY   CLOUDY    46  30  53 S20       29.84F
OFFUTT AFB     PTCLDY    48  31  52 SE22      29.85F
MILLARD        PTCLDY    47  30  52 SE16G23   29.84F
LINCOLN        PTCLDY    51  24  34 S20       29.80F
NEBRASKA CITY  PTCLDY    47  31  54 S20       29.88F
BEATRICE       PTCLDY    50  22  33 S16G24    29.84F
FALLS CITY     PTCLDY    47  30  51 S18G25    29.91F

...NORTHERN KANSAS...

CITY           SKY/WX    TMP DP  RH WIND       PRES   REMARKS
GOODLAND       PTCLDY    44  26  49 S12       29.68F
HILL CITY      PTCLDY    54  19  25 S17G25    29.73F
PHILLIPSBURG   CLEAR     52  21  30 S14G21    29.74F
SMITH CENTER   CLEAR     48  21  34 SE17      29.77F
BELOIT         CLEAR     52  18  25 SE13G18   29.80F
HAYS           PTCLDY    54  19  26 S22G29    29.78F
RUSSELL        PTCLDY    52  20  28 S20       29.78F
CONCORDIA      CLEAR     50  17  27 S20       29.82F
SALINA         PTCLDY    53  16  23 S18       29.86F
TOPEKA         PTCLDY    49  29  46 S16       29.97F



USA.gov is the U.S. government's official web portal to all federal, state and local government web resources and services.